Retour au catalogue

KUIPER-00612

ActifCommunicationsLEO
NORAD 69772·PAYLOAD·🇺🇸 United States

Lancé Jul 2, 2026 depuis Cape Canaveral Space Force Station

Loading…

Prochains Passages (prochaines 24 heures)

TLE

FraisSource: CelesTrak SupGP

Époque: Sep 14, 2026, 21:43 UTC

1 69772C 26151K   26257.90496528  .00002213  00000+0  31322-3 0  2579
2 69772  51.8994 256.3668 0000798  44.7717 198.0430 14.76632719    11

Suivez KUIPER-00612 en temps réel avec AllMySat

Download on the App Store